When you browse on this site, cookies collect data to enhance your experience and personalize the content and advertising you see.
Visit our Privacy Policy to learn more. By continuing to use the site, you agree to this use of cookies and data.
  • In United Kingdom
  • List of Countries
  • For 7 days
  • Water Temperature
  • Satellite Maps
  • Weather Map
  • Weather Widgets
  • user-avatar
    Login

    Hourly Weather Mitu

    Today, 20 June, Thursday

    Time Temperature Precipitation Wind Pressure Humidity
    00:00 +22°C° 0.1 mm 0 mps 740 mmHg 98%
    01:00 +21°C° 0 mm 0 mps 740 mmHg 98%
    02:00 +21°C° 0.2 mm 0 mps 740 mmHg 98%
    03:00 +21°C° 0.2 mm 0 mps 740 mmHg 98%
    04:00 +21°C° 0.2 mm 0 mps 740 mmHg 99%
    05:00 +21°C° 0 mm 0 mps 740 mmHg 98%
    06:00 +22°C° 0 mm 0 mps 741 mmHg 98%
    07:00 +22°C° 0 mm 0 mps 741 mmHg 97%
    08:00 +26°C° 0.5 mm 1 mps 741 mmHg 92%
    09:00 +27°C° 0.5 mm 1 mps 741 mmHg 87%
    10:00 +29°C° 0.5 mm 1 mps 741 mmHg 82%
    11:00 +30°C° 0.7 mm 1 mps 741 mmHg 79%
    12:00 +30°C° 0.7 mm 1 mps 740 mmHg 76%
    13:00 +31°C° 0.7 mm 1 mps 740 mmHg 72%
    14:00 +31°C° 0.3 mm 1 mps 739 mmHg 75%
    15:00 +30°C° 0.3 mm 1 mps 739 mmHg 77%
    16:00 +28°C° 0.3 mm 0 mps 738 mmHg 80%
    17:00 +26°C° 0.7 mm 0 mps 739 mmHg 85%
    18:00 +25°C° 0.7 mm 0 mps 739 mmHg 90%
    19:00 +23°C° 0.7 mm 0 mps 740 mmHg 96%
    20:00 +22°C° 0.4 mm 0 mps 740 mmHg 96%
    21:00 +22°C° 0.4 mm 0 mps 741 mmHg 96%
    22:00 +22°C° 0.4 mm 0 mps 741 mmHg 97%
    23:00 +22°C° 0.1 mm 0 mps 741 mmHg 97%

    Tomorrow, 21 June, Friday

    Time Temperature Precipitation Wind Pressure Humidity
    00:00 +21°C° 0.1 mm 0 mps 741 mmHg 97%
    01:00 +21°C° 0.1 mm 0 mps 741 mmHg 98%
    02:00 +21°C° 0.9 mm 0 mps 740 mmHg 98%
    03:00 +21°C° 0.9 mm 0 mps 740 mmHg 98%
    04:00 +21°C° 0.9 mm 0 mps 740 mmHg 99%
    05:00 +22°C° 0.7 mm 0 mps 741 mmHg 98%
    06:00 +22°C° 0.7 mm 0 mps 741 mmHg 98%
    07:00 +22°C° 0.7 mm 0 mps 742 mmHg 98%
    08:00 +23°C° 1.2 mm 0 mps 742 mmHg 96%
    09:00 +25°C° 1.2 mm 0 mps 742 mmHg 94%
    10:00 +26°C° 1.2 mm 0 mps 742 mmHg 92%
    11:00 +26°C° 1.1 mm 0 mps 741 mmHg 88%
    12:00 +27°C° 1.1 mm 0 mps 741 mmHg 84%
    13:00 +30°C° 1.1 mm 1 mps 740 mmHg 79%
    14:00 +30°C° 0.9 mm 1 mps 739 mmHg 84%
    15:00 +27°C° 0.9 mm 0 mps 739 mmHg 88%
    16:00 +27°C° 0.9 mm 0 mps 739 mmHg 92%
    17:00 +25°C° 0.5 mm 0 mps 739 mmHg 93%
    18:00 +24°C° 0.5 mm 0 mps 740 mmHg 94%
    19:00 +22°C° 0.5 mm 0 mps 740 mmHg 96%
    20:00 +22°C° 0.3 mm 0 mps 741 mmHg 96%
    21:00 +22°C° 0.3 mm 0 mps 742 mmHg 97%
    22:00 +21°C° 0.3 mm 0 mps 742 mmHg 97%
    23:00 +21°C° 0.6 mm 0 mps 742 mmHg 98%

    Day after tomorrow, 22 June, Saturday

    Time Temperature Precipitation Wind Pressure Humidity
    00:00 +21°C° 0.6 mm 0 mps 742 mmHg 98%
    01:00 +21°C° 0.6 mm 0 mps 741 mmHg 99%
    02:00 +21°C° 0.1 mm 0 mps 741 mmHg 99%
    03:00 +20°C° 0.1 mm 0 mps 741 mmHg 99%
    04:00 +20°C° 0.1 mm 0 mps 741 mmHg 99%
    05:00 +21°C° 0.1 mm 0 mps 741 mmHg 99%
    06:00 +23°C° 0.1 mm 1 mps 742 mmHg 98%
    07:00 +24°C° 0.1 mm 1 mps 742 mmHg 98%
    08:00 +25°C° 0.3 mm 1 mps 743 mmHg 95%
    09:00 +26°C° 0.3 mm 1 mps 743 mmHg 91%
    10:00 +27°C° 0.3 mm 1 mps 743 mmHg 88%
    11:00 +27°C° 0.8 mm 1 mps 742 mmHg 85%
    12:00 +28°C° 0.8 mm 1 mps 741 mmHg 82%
    13:00 +29°C° 0.8 mm 1 mps 741 mmHg 79%
    14:00 +28°C° 0.6 mm 1 mps 740 mmHg 81%
    15:00 +28°C° 0.6 mm 1 mps 740 mmHg 84%
    16:00 +28°C° 0.6 mm 1 mps 739 mmHg 87%
    17:00 +25°C° 0.8 mm 0 mps 740 mmHg 90%
    18:00 +24°C° 0.8 mm 0 mps 740 mmHg 94%
    19:00 +22°C° 0.8 mm 0 mps 740 mmHg 97%
    20:00 +22°C° 0.5 mm 0 mps 741 mmHg 97%
    21:00 +22°C° 0.5 mm 0 mps 742 mmHg 98%
    22:00 +22°C° 0.5 mm 0 mps 742 mmHg 98%
    23:00 +22°C° 0 mm 0 mps 742 mmHg 98%

    23 June, Sunday

    Time Temperature Precipitation Wind Pressure Humidity
    00:00 +22°C° 0 mm 0 mps 741 mmHg 98%
    01:00 +22°C° 0 mm 0 mps 741 mmHg 98%
    02:00 +21°C° 0.3 mm 0 mps 741 mmHg 98%
    03:00 +21°C° 0.3 mm 0 mps 741 mmHg 98%
    04:00 +21°C° 0.3 mm 0 mps 741 mmHg 98%
    05:00 +22°C° 0.5 mm 0 mps 741 mmHg 98%
    06:00 +22°C° 0.5 mm 0 mps 742 mmHg 98%
    07:00 +22°C° 0.5 mm 0 mps 742 mmHg 98%
    08:00 +22°C° 0.7 mm 0 mps 742 mmHg 98%
    09:00 +22°C° 0.7 mm 0 mps 742 mmHg 98%
    10:00 +22°C° 0.7 mm 0 mps 743 mmHg 98%
    11:00 +23°C° 0.8 mm 0 mps 742 mmHg 96%
    12:00 +26°C° 0.8 mm 1 mps 741 mmHg 94%
    13:00 +27°C° 0.8 mm 1 mps 740 mmHg 92%
    14:00 +27°C° 1.3 mm 1 mps 740 mmHg 93%
    15:00 +27°C° 1.3 mm 1 mps 739 mmHg 94%
    16:00 +27°C° 1.3 mm 1 mps 739 mmHg 96%
    17:00 +26°C° 1.2 mm 1 mps 739 mmHg 96%
    18:00 +25°C° 1.2 mm 1 mps 740 mmHg 97%
    19:00 +24°C° 1.2 mm 1 mps 740 mmHg 98%
    20:00 +24°C° 0.2 mm 1 mps 740 mmHg 98%
    21:00 +24°C° 0.2 mm 1 mps 741 mmHg 98%
    22:00 +24°C° 0.2 mm 1 mps 741 mmHg 99%
    23:00 +23°C° 0.4 mm 1 mps 741 mmHg 99%

    24 June, Monday

    Time Temperature Precipitation Wind Pressure Humidity
    00:00 +23°C° 0.4 mm 1 mps 740 mmHg 99%
    01:00 +21°C° 0.4 mm 0 mps 740 mmHg 99%
    02:00 +23°C° 1.3 mm 1 mps 740 mmHg 99%
    03:00 +23°C° 1.3 mm 1 mps 740 mmHg 99%
    04:00 +23°C° 1.3 mm 1 mps 740 mmHg 99%
    05:00 +23°C° 2.4 mm 1 mps 740 mmHg 99%
    06:00 +23°C° 2.4 mm 1 mps 741 mmHg 99%
    07:00 +23°C° 2.4 mm 1 mps 741 mmHg 99%
    08:00 +23°C° 0.9 mm 1 mps 741 mmHg 99%
    09:00 +23°C° 0.9 mm 1 mps 742 mmHg 99%
    10:00 +23°C° 0.9 mm 1 mps 742 mmHg 98%
    11:00 +25°C° 0.1 mm 1 mps 741 mmHg 91%
    12:00 +26°C° 0.1 mm 2 mps 740 mmHg 85%
    13:00 +27°C° 0.1 mm 2 mps 740 mmHg 78%
    14:00 +27°C° 0.1 mm 2 mps 739 mmHg 77%
    15:00 +27°C° 0.1 mm 2 mps 739 mmHg 77%
    16:00 +27°C° 0.1 mm 2 mps 738 mmHg 76%
    17:00 +26°C° 0 mm 2 mps 738 mmHg 82%
    18:00 +25°C° 0 mm 1 mps 739 mmHg 88%
    19:00 +23°C° 0 mm 1 mps 739 mmHg 94%
    20:00 +23°C° 0 mm 1 mps 739 mmHg 95%
    21:00 +23°C° 0 mm 1 mps 740 mmHg 96%
    22:00 +22°C° 0 mm 1 mps 740 mmHg 97%
    23:00 +22°C° 0 mm 1 mps 740 mmHg 96%

    25 June, Tuesday

    Time Temperature Precipitation Wind Pressure Humidity
    00:00 +22°C° 0 mm 1 mps 740 mmHg 95%
    01:00 +23°C° 0 mm 1 mps 739 mmHg 93%
    02:00 +22°C° 0 mm 1 mps 739 mmHg 94%
    03:00 +22°C° 0 mm 1 mps 739 mmHg 95%
    04:00 +22°C° 0 mm 1 mps 738 mmHg 96%
    05:00 +20°C° 0 mm 0 mps 739 mmHg 94%
    06:00 +21°C° 0 mm 0 mps 739 mmHg 91%
    07:00 +21°C° 0 mm 0 mps 740 mmHg 89%
    08:00 +24°C° 0 mm 0 mps 740 mmHg 80%
    09:00 +28°C° 0 mm 1 mps 741 mmHg 70%
    10:00 +30°C° 0 mm 1 mps 741 mmHg 61%
    11:00 +30°C° 0.1 mm 1 mps 740 mmHg 61%
    12:00 +31°C° 0.1 mm 1 mps 739 mmHg 62%
    13:00 +31°C° 0.1 mm 1 mps 738 mmHg 63%
    14:00 +30°C° 0.8 mm 1 mps 737 mmHg 72%
    15:00 +29°C° 0.8 mm 1 mps 737 mmHg 82%
    16:00 +26°C° 0.8 mm 0 mps 736 mmHg 91%
    17:00 +25°C° 0.2 mm 0 mps 737 mmHg 93%
    18:00 +24°C° 0.2 mm 0 mps 737 mmHg 95%
    19:00 +22°C° 0.2 mm 0 mps 737 mmHg 96%
    20:00 +22°C° 0.1 mm 0 mps 738 mmHg 97%
    21:00 +22°C° 0.1 mm 0 mps 738 mmHg 97%
    22:00 +22°C° 0.1 mm 0 mps 739 mmHg 97%
    23:00 +21°C° 0.1 mm 0 mps 739 mmHg 98%
    Show more